sat.trackr.live / text

‹ back to catalog

STARLINK-3623

NORAD 51772 · 2022-017E

PAYLOAD ACTIVE UNKNOWN

§ Identity

Operator
Country
US
Launch date
2022-02-25
Launch site
AFWTR
Launch vehicle
Mass (kg)
RCS (m²)

Purposes: comms

External: N2YO · Heavens-Above · Gunter

§ Orbital elements

Epoch: 2026-05-24T23:27:15.409152Z

Period
95.44 min
Inclination
53.2154°
Eccentricity
0.0001448
Mean motion
15.08831712 rev/d
Perigee alt
538.8 km
Apogee alt
540.8 km
Semi-major
6,917.9 km
B*
-2.3430e-5
RAAN
356.6501°
Arg perigee
86.8104°
Mean anomaly
273.3054°
Rev number
23,411

§ Raw data

STARLINK-36231 51772U 22017E   26144.97726168 -.00000661  00000+0 -23430-4 0  99972 51772  53.2154 356.6501 0001448  86.8104 273.3054 15.08831712234115

JSON: /api/v1/satellites/51772 · /tle

For live sub-satellite position, see the globe view (requires WebGL).

§ Visibility from observer

Set your observer location to see the next 7 days of passes ≥ 10°. The values pass through the URL so the page stays shareable.

No JS? Fill the form by hand. The geolocation button needs JavaScript.